Gainesville, FL

3:52 PM EDT on October 17, 2017 (GMT -0400)
Gainesville Regional

Weather History for KGNV - November, 2012

Change the Weather History Date:

Monday, November 12, 2012

  Actual Average Record
Temperature  
Mean Temperature 69 °F 64 °F  
Max Temperature 82 °F 75 °F 87 °F (1946)
Min Temperature 55 °F 52 °F 30 °F (2011)
Degree Days  
Heating Degree Days 0 4  
Month to date heating degree days 50 37  
Since 1 July heating degree days 78 64  
Cooling Degree Days 4 2  
Month to date cooling degree days 12 37  
Year to date cooling degree days 2958 2587  
Growing Degree Days 18 (Base 50)    
Moisture  
Dew Point 60 °F    
Average Humidity 70    
Maximum Humidity 97    
Minimum Humidity 42    
Precipitation  
Precipitation T in 0.07 in 2.10 in (1920)
Month to date precipitation 0.04 0.85  
Year to date precipitation 49.30 43.72  
Snow  
Snow 0.00 in 0.00 in 0.00 in ()
Month to date snowfall 0.0 0.0  
Since 1 July snowfall 0.0 0.0  
Since 1 September snowfall 0.0 0.0  
Snow Depth 0.00 in    
Sea Level Pressure  
Sea Level Pressure 30.24 in    
Wind  
Wind Speed 2 mph (SE)    
Max Wind Speed 13 mph    
Max Gust Speed 20 mph    
Visibility 10 miles    
Events      
T = Trace of Precipitation, MM = Missing Value Source: NWS Daily Summary

Daily Weather History Graph

Daily Weather History Graph

Search for Another Location

Airport or City:

Trip Planner

Search our weather history database for the weather conditions in past years. The results will help you decide how hot, cold, wet, or windy it might be!

Date:

Astronomy

Nov. 12, 2012 Rise Set
Actual Time 6:51 AM EST 5:34 PM EST
Civil Twilight 6:26 AM EST 5:59 PM EST
Nautical Twilight 5:57 AM EST 6:28 PM EST
Astronomical Twilight 5:29 AM EST 6:56 PM EST
Moon 5:19 AM EST (11/12) 4:36 PM EST (11/12)
Length of Visible Light 11h 33m
Length of Day
10h 43m
Waning Crescent, 2% of the Moon is Illuminated
Nov 12
Waning Crescent
Nov 13
New
Nov 20
First Quarter
Nov 28
Full
Dec 6
Last Quarter

Hourly Weather History & Observations

Time (EST) Temp. Heat Index Dew Point Humidity Pressure Visibility Wind Dir Wind Speed Gust Speed Precip Events Conditions
12:53 AM 64.9 °F - 61.0 °F 87% 30.27 in 10.0 mi Calm Calm - 0.00 in   Overcast
1:53 AM 64.0 °F - 61.0 °F 90% 30.26 in 10.0 mi Calm Calm - N/A   Mostly Cloudy
2:53 AM 60.1 °F - 59.0 °F 96% 30.25 in 4.0 mi Calm Calm - N/A   Mostly Cloudy
3:53 AM 60.1 °F - 57.9 °F 93% 30.24 in 9.0 mi Calm Calm - N/A   Overcast
4:53 AM 57.0 °F - 55.9 °F 96% 30.23 in 8.0 mi Calm Calm - N/A   Clear
5:53 AM 57.0 °F - 55.9 °F 96% 30.24 in 10.0 mi Calm Calm - N/A   Clear
6:17 AM 55.4 °F - 55.4 °F 100% 30.24 in 9.0 mi Calm Calm - N/A   Mostly Cloudy
6:53 AM 55.0 °F - 54.0 °F 96% 30.25 in 9.0 mi Calm Calm - N/A   Mostly Cloudy
7:53 AM 61.0 °F - 59.0 °F 93% 30.27 in 10.0 mi Calm Calm - N/A   Overcast
8:43 AM 69.8 °F - 64.4 °F 83% 30.28 in 10.0 mi Calm Calm - N/A   Scattered Clouds
8:53 AM 71.1 °F - 64.0 °F 78% 30.27 in 10.0 mi Calm Calm - N/A   Clear
9:41 AM 75.2 °F - 64.4 °F 69% 30.29 in 10.0 mi SE 4.6 mph - N/A   Mostly Cloudy
9:53 AM 75.9 °F - 64.0 °F 67% 30.28 in 10.0 mi SE 6.9 mph - N/A   Overcast
10:18 AM 77.0 °F - 64.4 °F 65% 30.28 in 10.0 mi ESE 8.1 mph - N/A   Partly Cloudy
10:53 AM 78.1 °F - 64.0 °F 62% 30.27 in 10.0 mi SE 8.1 mph - N/A   Clear
11:53 AM 81.0 °F 81.6 °F 60.1 °F 49% 30.25 in 10.0 mi SSE 9.2 mph - N/A   Clear
12:53 PM 80.1 °F 80.6 °F 57.9 °F 47% 30.23 in 10.0 mi East 8.1 mph - N/A   Partly Cloudy
1:53 PM 80.1 °F 80.1 °F 55.0 °F 42% 30.20 in 10.0 mi ESE 4.6 mph - N/A   Scattered Clouds
2:53 PM 79.0 °F - 57.9 °F 48% 30.19 in 10.0 mi SSE 4.6 mph - N/A   Scattered Clouds
3:53 PM 80.1 °F 80.4 °F 57.0 °F 45% 30.19 in 10.0 mi SSE 3.5 mph - N/A   Clear
4:53 PM 75.9 °F - 61.0 °F 60% 30.18 in 10.0 mi Calm Calm - N/A   Clear
5:53 PM 72.0 °F - 62.1 °F 71% 30.19 in 10.0 mi Calm Calm - N/A   Clear
6:53 PM 68.0 °F - 62.1 °F 81% 30.20 in 10.0 mi Calm Calm - N/A   Scattered Clouds
7:53 PM 66.9 °F - 62.1 °F 84% 30.21 in 10.0 mi Calm Calm - N/A   Clear
8:53 PM 66.9 °F - 62.1 °F 84% 30.21 in 10.0 mi Calm Calm - N/A   Clear
9:53 PM 64.0 °F - 62.1 °F 93% 30.21 in 10.0 mi Calm Calm - N/A   Clear
10:53 PM 62.1 °F - 60.1 °F 93% 30.20 in 10.0 mi Calm Calm - N/A   Clear
11:53 PM 61.0 °F - 60.1 °F 97% 30.20 in 10.0 mi Calm Calm - N/A   Partly Cloudy